Location: Peebles
(55.6412°N, 3.1714°W)
Time: 14:40:49
(UTC+01:00)

FENGYUN 1C DEB - Pass Details

Date: 06 July 2022
Orbit: 733 x 848 km, 99.0° (Epoch: 16 August)

Event Time Altitude Azimuth Distance (km) Brightness Sun altitude
Rises 03:09:25 0° 101° (E) 3,222 ? -8.1°
Reaches altitude 10° 03:12:41 10° 78° (ENE) 2,281 ? -7.9°
Maximum altitude 03:15:22 15° 45° (NE) 1,957 ? -7.7°
Drops below altitude 10° 03:18:03 10° 12° (NNE) 2,263 ? -7.6°
Sets 03:21:16 0° 350° (N) 3,181 ? -7.3°
